Location: Grieser Field
(39.7333°N, 81.7975°W)
Time: 00:08:13
(UTC-04:00)

Hubble Space Telescope - Visible Passes

Search period start: 17 October 2017 00:00
Search period end: 27 October 2017 00:00
Orbit: 537 x 541 km, 28.5° (Epoch: 16 October)

Date Brightness Start Highest point End Pass type
(mag) Time Alt. Az. Time Alt. Az. Time Alt. Az.
20 Oct 3.3 20:28:55 10° S 20:29:13 10° S 20:29:13 10° S visible
21 Oct 3.1 20:17:57 10° SSW 20:19:41 13° SSE 20:19:41 13° SSE visible
22 Oct 2.9 20:07:17 10° SSW 20:09:28 14° S 20:10:06 14° SSE visible
23 Oct 2.9 19:56:43 10° SSW 19:59:09 15° S 20:00:30 13° SSE visible
24 Oct 2.9 19:46:16 10° SSW 19:48:51 16° S 19:50:53 12° SE visible
25 Oct 2.9 19:35:52 10° SW 19:38:33 17° S 19:41:14 10° SE visible
26 Oct 3.0 19:25:32 10° SW 19:28:15 17° S 19:30:58 10° SE visible
26 Oct 3.7 21:06:52 10° SW 21:07:03 10° SW 21:07:03 10° SW visible
